Regional Weather Roundup
Issued by NWS Kansas City/Pleasant Hill, MO

Home | Current Version | Previous Version | Text Only | Print | Product List | Glossary On
Versions: 1 2 3 4 5 6 7 8 9 10 11 12 13 14 15 16 17 18 19 20 21 22 23 24 25 26 27 28
000
ASUS43 KEAX 242010
RWREAX

WEATHER ROUNDUP FOR EASTERN KANSAS AND NORTHWEST MISSOURI
NATIONAL WEATHER SERVICE KANSAS CITY/PLEASANT HILL MO
300 PM CDT SUN SEP 24 2017

KSZ040-057-103>105-MOZ028-029-037-043-242100-
...KANSAS CITY METROPOLITAN AREA...

CITY           SKY/WX    TMP DP  RH WIND       PRES   REMARKS
K.C. INTL      MOSUNNY   87  68  52 S14       29.94F HX  90
K.C. DOWNTOWN  MOSUNNY   90  67  46 S9        29.93F HX  93
LEES SUMMIT    MOSUNNY   89  67  47 S13       29.96F HX  92
OLATHE - IXD   MOSUNNY   87  67  51 S8        29.95F HX  90
OLATHE - OJC   MOSUNNY   86  67  52 S10       29.95F
LAWRENCE       MOSUNNY   89  67  47 SE13G18   29.92F HX  92

$$

MOZ001>008-011>017-020>025-030>033-038>040-044>046-053-054-242100-
...NORTHERN AND CENTRAL MISSOURI...

CITY           SKY/WX    TMP DP  RH WIND       PRES   REMARKS
ST. JOSEPH     MOSUNNY   88  67  49 S9        29.92F HX  91
MOSBY          PTCLDY    86  63  45 S9        29.95F
WARRENSBURG    MOSUNNY   86  64  48 S8        29.95F
WHITEMAN AFB   MOSUNNY   87  68  52 SW5       29.95F HX  90
CLINTON        MOSUNNY   90  66  45 S7        29.96F HX  92
SEDALIA        PTSUNNY   90  69  50 S7        29.98F HX  94
WARSAW         NOT AVBL
CHILLICOTHE      N/A     89  66  46 S8        29.96F HX  91
KIRKSVILLE     MOSUNNY   90  63  40 SW9       29.98F HX  91

$$

MOZ041-047>049-056>058-063>065-088>090-097-242100-
...EASTERN AND SOUTHERN MISSOURI...

CITY           SKY/WX    TMP DP  RH WIND       PRES   REMARKS
ST. LOUIS INTL MOSUNNY   90  64  42 E9        29.98F HX  91
SPIRIT OF STL  SUNNY     90  66  45 VRB6      29.96F HX  92
COLUMBIA       MOSUNNY   89  66  46 S7        29.98F HX  91
JEFFERSON CITY SUNNY     88  65  46 CALM      29.96F HX  90
ROLLA          MOSUNNY   87  64  46 CALM      29.99F
OSAGE BEACH    PTSUNNY   89  67  47 VRB7      29.98F HX  92
SPRINGFIELD    MOSUNNY   87  65  47 S6        29.97F
BRANSON        PTSUNNY   88  61  40 SE9       29.99F
JOPLIN         MOSUNNY   88  68  51 S9        29.95F HX  91
WEST PLAINS    CLOUDY    87  62  43 SE6       30.00F

$$

IAZ060-094-KSZ022-034>040-054-083-096-NEZ052-066-093-242100-
...KANSAS...SOUTHEAST NEBRASKA AND IOWA...

CITY           SKY/WX    TMP DP  RH WIND       PRES   REMARKS
TOPEKA         SUNNY     90  66  45 S12       29.91F HX  92
MANHATTAN      MOSUNNY   89  62  40 S13       29.88F
EMPORIA        MOSUNNY   88  64  44 S16       29.91F
CHANUTE        MOSUNNY   88  66  48 S12       29.93F HX  90
WICHITA        CLOUDY    87  63  44 S15       29.88F
OMAHA          HVY RAIN  75  67  76 W9G35     29.87F
LINCOLN        MOSUNNY   86  65  49 S14       29.87F
FALLS CITY     MOSUNNY   89  64  43 S18       29.89F HX  90
LAMONI         MOSUNNY   88  64  44 S12       29.95F
DES MOINES     MOSUNNY   89  62  40 S10       29.92F

$$





USA.gov is the U.S. government's official web portal to all federal, state and local government web resources and services.